Probability
0 0 0 0 0 0 0 0 0 0 0 0 0 0 0 0 0 0 0 0 0 0 0 0 0 0 0 0 0 0 0 0 0 0 0 0 0 0 0 0 0 0 0
0 0 0 0 0 0 0 0 0 0 0 0 0 0 0 0 0 0 0 0 0 0 0 0 0 0 0 0 0 0 0 0 0 0 0 0 0 0 0 0 0 0 0
0 0 0 0 0 0 0 0 0 0 0 0 0 0 0 0 0 0 0 0 0 0 0 0 0 0 0 0 0 0 0 0 0 0 0 0 0 0 0 0 0 0 0
0 0 0 0 0 0 0 0 0 0 0 0 0 0 0 0 0 0 0 0 0 0 0 0 0 0 0 0 0 0 0 0 0 0 0 0 0 0 0 0 0 0 0
0 0 0 0 0 0 0 0 0 0 0 0 0 0 0 0 0 0 0 0 0 0 0 0 0 0 0 0 0 0 0 0 0 0 0 0 0 0 0 0 0 0 0
0 0 0 0 0 0 0 0 0 0 0 0 0 0 0 0 0 0 0 0 0 0 0 0 0 0 0 0 0 0 0 0 0 0 0 0 0 0 0 0 0 0 0
0 0 0 0 0 0 0 0 0 0 0 0 0 0 0 0 0 0 0 0 0 0 0 0 0 0 0 0 0 0 0 0 0 0 0 0 0 0 0 0 0 0 0
0 0 0 3 0 0 0 0 0 0 0 0 0 0 0 0 0 0 0 0 0 0 0 0 0 0 0 0 0 0 0 0 0 0 0 0 0 0 0 0 0 0 0
0 0 0 0 0 0 0 0 0 0 0 0 0 0 0 0 0 0 0 0 0 0 0 0 0 0 0 0 0 0 0 0 0 0 0 0 0 0 0 0 0 0 0
0 0 0 0 0 0 0 0 0 0 0 0 0 0 0 0 0 0 0 0 0 0 0 0 0 0 0 0 0 0 0 0 0 0 0 0 0 0 0 0 0 0 0
0 0 0 0 0 0 0 0 0 0 0 0 0 0 0 0 0 0 0 0 0 0 0 0 0 0 0 0 0 0 0 0 0 0 0 0 0 0 0 0 0 0 0
0 0 0 0 0 0 0 0 0 0 0 0 0 0 0 0 0 0 0 0 0 0 0 0 0 0 0 0 0 0 0 0 0 0 0 0 0 0 0 0 0 0 0
0 0 0 0 0 0 0 0 0 0 0 0 0 0 0 0 0 0 0 0 0 0 0 0 0 0 0 0 0 0 0 0 0 0 0 0 0 0 0 0 0 0 0
0 0 0 0 0 0 0 0 0 0 0 0 0 0 0 0 0 0 0 0 0 0 0 0 0 0 0 0 0 0 0 0 0 0 0 0 0 0 0 0 0 0 0
0 0 0 0 0 0 0 0 0 0 0 0 0 0 0 0 0 0 0 0 0 0 0 0 0 0 0 0 0 0 0 0 0 0 0 0 0 0 0 0 0 0 0
0 0 0 0 0 0 0 0 0 0 0 0 0 0 0 0 0 0 0 0 0 0 0 0 0 0 0 0 0 0 0 0 0 0 0 0 0 0 0 0 0 0 0
0 0 0 0 0 0 0 0 0 0 0 0 0 0 0 0 0 0 0 0 0 0 0 0 0 0 0 0 0 0 0 0 0 0 0 0 0 0 0 0 0 0 0
0 0 0 0 0 0 0 0 0 0 0 0 0 0 0 0 0 0 0 0 0 0 0 0 0 0 0 0 0 0 0 0 0 0 0 0 0 0 0 0 0 0 0
0 0 0 0 0 0 0 0 0 0 0 0 0 0 0 0 0 0 0 0 0 0 0 0 0 0 0 0 0 0 0 0 0 0 0 0 0 0 0 0 0 0 0
0 0 0 0 0 0 0 0 0 0 0 0 0 0 0 0 0 0 0 0 0 0 0 0 0 0 0 0 0 0 0 0 0 0 0 0 0 0 0 0 0 0 0
0 0 0 0 0 0 0 0 0 0 0 0 0 0 0 0 0 0 0 0 0 0 0 0 0 0 0 0 0 0 0 0 0 0 0 0 0 0 0 0 0 0 0
0 0 0 0 0 0 0 0 0 0 0 0 0 0 0 0 0 0 0 0 0 0 0 0 0 0 0 0 0 0 0 0 0 0 0 0 0 0 0 0 0 0 0
0 0 0 0 0 0 0 0 0 0 0 0 0 0 0 0 0 0 0 0 0 0 0 0 0 0 0 0 0 0 0 0 0 0 0 0 0 0 0 0 0 0 0
0 0 0 0 0 0 0 0 0 0 0 0 0 0 0 0 0 0 0 0 0 0 0 0 0 0 0 0 0 0 0 0 0 0 0 0 0 0 0 0 0 0 0
0 0 0 0 0 0 0 0 0 0 0 0 0 0 0 0 0 0 0 0 0 0 0 0 0 0 0 0 0 0 0 0 0 0 0 0 0 0 0 0 0 0 0
0 0 0 0 0 0 0 0 0 0 0 0 0 0 0 0 0 0 0 0 0 0 0 0 0 0 0 0 0 0 0 0 0 0 0 0 0 0 0 0 0 0 0
Height
5878 5878 5878 5879 5879 5879 5879 5879 5880 5880 5880 5880 5880 5880 5880 5880 5880 5879 5879 5879 5879 5878 5878 5878 5878 5877 5877 5877 5877 5877 5877 5877 5877 5877 5878 5878 5878 5878 5878 5878 5879 5879 5879
5876 5876 5876 5877 5877 5877 5877 5877 5878 5878 5878 5878 5878 5877 5877 5877 5877 5877 5877 5876 5876 5876 5875 5875 5875 5875 5874 5874 5874 5874 5874 5874 5874 5874 5875 5875 5875 5875 5875 5875 5875 5876 5876
5874 5874 5874 5875 5875 5875 5875 5875 5875 5876 5875 5875 5875 5875 5875 5875 5874 5874 5874 5874 5873 5873 5873 5872 5872 5872 5872 5871 5871 5871 5871 5871 5871 5871 5871 5871 5872 5872 5872 5872 5872 5872 5873
5873 5873 5873 5873 5873 5873 5873 5873 5873 5873 5873 5873 5873 5873 5872 5872 5872 5871 5871 5871 5870 5870 5870 5870 5869 5869 5869 5869 5868 5868 5868 5868 5868 5868 5868 5868 5868 5868 5868 5868 5869 5869 5869
5871 5871 5871 5871 5871 5871 5871 5871 5871 5871 5871 5871 5870 5870 5870 5869 5869 5869 5868 5868 5868 5867 5867 5867 5866 5866 5866 5866 5865 5865 5865 5865 5865 5865 5865 5865 5865 5865 5865 5865 5865 5865 5865
5870 5870 5869 5869 5869 5869 5869 5869 5869 5869 5868 5868 5868 5867 5867 5867 5866 5866 5865 5865 5865 5864 5864 5864 5864 5863 5863 5863 5862 5862 5862 5862 5862 5862 5861 5861 5861 5861 5861 5861 5861 5861 5861
5868 5868 5867 5867 5867 5867 5866 5866 5866 5866 5866 5865 5865 5865 5864 5864 5863 5863 5862 5862 5862 5861 5861 5861 5861 5860 5860 5860 5859 5859 5859 5859 5858 5858 5858 5858 5858 5858 5858 5857 5857 5857 5857
5866 5865 5865 5864 5864 5864 5863 5863 5863 5863 5862 5862 5862 5862 5861 5861 5860 5860 5860 5859 5859 5858 5858 5858 5857 5857 5857 5856 5856 5856 5856 5855 5855 5855 5855 5855 5855 5854 5854 5854 5853 5853 5853
5863 5863 5862 5862 5861 5861 5860 5860 5860 5859 5859 5859 5858 5858 5858 5858 5857 5857 5856 5856 5856 5855 5855 5854 5854 5854 5853 5853 5853 5852 5852 5852 5852 5851 5851 5851 5851 5850 5850 5850 5849 5849 5848
5861 5860 5859 5859 5858 5857 5857 5856 5856 5856 5855 5855 5855 5855 5854 5854 5853 5853 5853 5852 5852 5852 5851 5851 5850 5850 5850 5849 5849 5849 5848 5848 5848 5847 5847 5847 5846 5846 5846 5845 5845 5844 5844
5857 5857 5856 5855 5855 5854 5853 5853 5852 5852 5851 5851 5851 5850 5850 5850 5849 5849 5849 5848 5848 5848 5847 5847 5846 5846 5846 5845 5845 5844 5844 5844 5843 5843 5843 5842 5842 5841 5841 5840 5840 5839 5838
5854 5853 5852 5851 5851 5850 5849 5849 5848 5847 5847 5847 5846 5846 5846 5845 5845 5845 5844 5844 5843 5843 5843 5842 5842 5841 5841 5840 5840 5840 5839 5839 5838 5838 5838 5837 5837 5836 5835 5835 5834 5833 5833
5850 5849 5848 5848 5847 5846 5845 5845 5844 5843 5842 5842 5842 5841 5841 5840 5840 5839 5839 5839 5838 5838 5837 5837 5836 5836 5835 5835 5834 5834 5833 5833 5832 5832 5832 5831 5830 5830 5829 5828 5827 5827 5826
5846 5845 5844 5843 5843 5842 5841 5840 5839 5838 5838 5837 5836 5836 5835 5835 5834 5834 5833 5833 5832 5832 5831 5831 5830 5830 5829 5828 5828 5827 5827 5826 5826 5825 5825 5824 5823 5822 5821 5821 5820 5819 5818
5841 5841 5840 5839 5838 5837 5836 5835 5834 5833 5832 5832 5831 5830 5829 5829 5828 5828 5827 5826 5826 5825 5825 5824 5824 5823 5822 5821 5820 5820 5819 5818 5818 5817 5817 5816 5815 5814 5813 5812 5811 5810 5809
5837 5836 5835 5834 5833 5832 5831 5830 5829 5828 5827 5826 5825 5824 5823 5822 5821 5821 5820 5819 5818 5818 5817 5817 5816 5815 5814 5813 5812 5811 5810 5809 5809 5808 5807 5807 5806 5805 5803 5802 5801 5800 5799
5832 5831 5830 5829 5828 5827 5825 5824 5823 5822 5821 5820 5818 5817 5816 5815 5814 5814 5813 5812 5811 5810 5809 5808 5807 5806 5805 5804 5803 5801 5801 5800 5799 5798 5797 5796 5795 5794 5793 5791 5790 5789 5788
5827 5826 5825 5823 5822 5821 5820 5819 5817 5816 5815 5813 5812 5811 5809 5808 5807 5806 5805 5804 5802 5802 5801 5799 5798 5797 5795 5794 5793 5791 5790 5789 5788 5787 5785 5784 5783 5782 5780 5779 5778 5776 5775
5822 5821 5820 5818 5817 5816 5814 5813 5811 5810 5808 5807 5806 5804 5802 5801 5800 5798 5797 5795 5794 5793 5791 5790 5788 5787 5785 5783 5781 5780 5779 5777 5776 5775 5773 5772 5770 5769 5767 5766 5764 5763 5762
5817 5816 5815 5813 5812 5810 5809 5807 5806 5804 5802 5800 5799 5797 5795 5794 5792 5790 5789 5787 5785 5783 5782 5780 5778 5776 5774 5772 5769 5768 5767 5765 5763 5762 5761 5758 5757 5755 5753 5751 5750 5749 5748
5813 5811 5810 5808 5806 5804 5803 5801 5799 5797 5795 5793 5792 5790 5788 5786 5784 5782 5780 5778 5776 5774 5772 5769 5767 5765 5763 5760 5757 5756 5755 5753 5751 5749 5747 5744 5743 5741 5739 5737 5735 5734 5733
5808 5806 5804 5802 5800 5798 5797 5795 5793 5791 5788 5786 5784 5782 5780 5778 5775 5773 5771 5769 5766 5764 5762 5759 5756 5753 5751 5747 5745 5742 5741 5741 5739 5736 5733 5730 5728 5726 5724 5722 5720 5718 5717
5802 5800 5798 5797 5795 5792 5790 5788 5786 5784 5781 5779 5777 5774 5772 5769 5767 5764 5762 5759 5756 5754 5751 5747 5744 5741 5738 5735 5732 5728 5725 5724 5723 5723 5720 5716 5713 5710 5707 5705 5703 5701 5699
5796 5794 5792 5790 5788 5786 5784 5781 5779 5777 5774 5772 5769 5766 5764 5761 5758 5755 5752 5749 5746 5743 5740 5736 5732 5728 5725 5722 5718 5714 5710 5705 5703 5704 5704 5701 5697 5693 5690 5687 5685 5683 5681
5790 5788 5786 5784 5782 5779 5777 5775 5772 5769 5767 5764 5761 5758 5755 5752 5749 5745 5742 5739 5735 5731 5727 5723 5719 5715 5711 5707 5702 5698 5694 5689 5684 5681 5682 5681 5678 5676 5673 5669 5666 5664 5662
5784 5782 5780 5777 5775 5773 5770 5767 5765 5762 5759 5756 5753 5749 5746 5742 5739 5735 5731 5727 5723 5719 5715 5710 5705 5700 5695 5691 5686 5680 5675 5671 5666 5660 5658 5658 5655 5654 5651 5649 5647 5644 5641
Wind_Speed
13 14 14 14 14 14 15 15 15 15 15 15 15 15 15 15 15 16 16 16 16 17 17 17 17 17 17 17 18 18 18 19 19 20 20 20 20 20 20 21 21 21 21
12 13 13 13 13 14 14 14 14 14 14 14 15 15 15 16 16 17 17 17 17 18 18 18 18 18 18 19 19 19 20 20 20 21 21 21 21 22 22 22 22 22 22
12 12 12 13 13 13 14 14 14 14 15 15 15 16 16 17 17 17 18 18 18 18 18 18 18 18 19 19 19 20 20 20 21 21 21 22 22 22 23 23 23 23 23
11 11 12 12 13 13 13 14 14 14 15 15 16 16 17 17 17 17 17 17 17 17 17 17 17 17 18 18 19 19 20 20 20 21 21 21 22 22 23 23 24 24 25
11 12 12 12 12 13 13 14 14 15 15 16 16 16 17 17 17 17 17 17 16 16 16 16 16 16 17 17 17 18 18 19 19 20 21 21 22 22 23 24 24 25 26
12 13 13 13 14 14 14 15 15 16 16 16 16 17 17 17 17 17 17 16 16 16 16 16 16 16 16 16 16 17 17 18 18 19 20 20 21 22 23 24 24 25 25
14 14 15 15 16 16 16 16 16 16 17 17 17 17 17 17 17 17 16 16 16 16 16 16 16 16 16 16 16 16 16 17 17 18 19 19 20 21 22 23 24 24 25
15 15 16 16 17 17 17 17 17 18 18 18 18 18 18 18 17 17 17 17 17 17 17 17 16 16 16 16 16 17 17 17 18 18 19 20 20 21 22 23 24 25 26
16 16 17 17 18 18 19 19 19 19 19 19 19 19 19 19 18 18 18 18 18 18 18 18 17 17 18 18 18 18 18 18 19 19 20 20 21 22 23 23 24 25 26
16 17 18 18 19 19 20 20 20 20 20 20 20 20 20 20 20 20 20 19 19 19 19 19 19 19 19 19 19 19 19 20 20 21 21 22 22 23 23 24 25 26 26
17 17 18 19 20 20 21 21 21 21 22 22 22 22 22 22 22 22 22 22 21 21 21 21 21 21 21 21 21 21 22 22 22 23 23 24 24 25 25 26 26 27 28
17 18 19 20 20 21 21 22 23 23 23 23 24 24 24 24 24 24 24 24 24 24 24 24 24 24 24 25 25 25 25 25 26 26 26 27 27 27 28 28 29 30 30
19 19 20 21 21 22 22 23 24 24 25 25 26 26 26 27 27 27 27 27 27 27 27 27 28 28 28 28 28 29 29 29 30 30 30 30 30 31 31 32 32 33 33
20 20 21 21 22 23 23 24 25 26 27 27 28 28 28 29 29 30 30 30 30 31 31 31 31 31 32 32 32 33 33 33 33 34 34 34 34 34 35 35 36 36 37
21 21 21 22 23 23 24 25 26 27 28 28 29 30 30 31 31 32 32 33 33 34 34 34 34 35 35 36 37 37 37 37 37 37 37 37 38 38 38 39 39 40 40
21 21 22 23 23 24 25 26 26 27 28 29 30 31 31 32 33 34 34 35 35 36 36 36 37 38 38 39 40 41 41 41 41 41 41 41 41 42 42 42 43 43 44
21 21 21 22 23 24 25 26 26 27 28 29 30 30 31 32 33 34 35 36 37 37 38 38 39 40 41 42 43 43 44 44 44 45 45 45 45 46 46 46 47 47 47
20 20 21 22 23 24 24 25 26 27 28 29 30 31 32 33 33 34 35 36 37 38 39 39 41 42 43 44 45 46 46 47 47 48 48 48 49 49 50 50 50 50 50
19 20 21 21 22 23 24 25 26 27 28 29 30 31 32 32 33 34 35 36 38 38 39 40 41 43 44 45 46 47 48 49 50 50 51 52 52 53 53 53 54 54 54
20 20 21 22 23 24 24 25 26 27 28 29 30 31 32 33 34 34 35 36 38 38 40 41 42 44 45 46 48 49 50 51 51 52 53 54 55 55 56 56 57 57 57
21 21 22 23 24 25 25 26 27 28 29 30 31 32 33 33 34 35 36 37 39 39 41 42 44 45 46 48 49 50 51 51 52 52 54 55 56 57 58 58 59 60 60
22 23 24 24 25 25 26 27 27 28 29 30 31 32 33 34 35 36 37 38 39 40 41 43 45 46 47 49 51 52 52 52 53 54 55 57 58 59 60 61 62 62 63
24 25 25 25 26 26 26 27 28 29 30 31 31 32 33 34 36 37 38 39 41 42 43 45 47 48 50 51 53 55 56 56 56 55 56 58 60 62 63 64 65 66 66
26 26 26 26 26 27 27 28 29 30 30 31 32 33 34 36 37 39 40 42 43 45 46 48 50 52 53 54 56 58 60 62 63 61 60 61 63 65 66 67 68 69 69
27 27 26 26 26 27 27 28 29 30 31 32 33 35 36 38 39 41 43 45 46 48 49 51 53 55 57 59 61 63 65 67 69 70 68 68 68 68 69 70 72 72 73
27 27 27 27 27 27 28 29 31 32 33 34 35 37 38 40 42 44 45 47 49 51 53 56 58 60 62 64 66 69 70 72 73 75 76 75 75 75 75 75 75 76 76
Wind_Direction
251 250 250 251 252 253 254 255 255 256 258 258 259 259 259 258 257 256 256 256 255 255 255 254 254 254 254 255 256 256 255 255 255 256 255 255 255 255 256 256 257 256 256
251 250 250 250 251 253 254 255 256 257 258 259 259 260 260 260 259 259 259 259 258 257 257 257 256 256 256 256 257 257 257 257 256 257 257 257 257 257 257 258 259 259 259
251 250 250 251 251 253 254 255 257 258 259 260 261 262 263 264 263 263 262 261 260 259 259 258 258 257 257 257 257 257 257 257 258 258 258 258 258 258 259 259 260 261 262
251 252 252 252 253 254 255 257 259 260 261 262 264 265 267 267 266 265 264 263 262 261 260 260 259 258 258 257 257 257 258 258 259 259 260 260 260 260 261 261 262 263 264
256 255 255 256 256 257 258 260 261 263 264 265 266 267 268 269 268 266 265 264 263 262 261 260 260 260 259 259 258 258 259 260 260 261 262 262 263 263 264 264 264 265 266
262 260 260 260 261 262 263 264 265 265 266 267 268 269 269 269 269 267 265 264 264 264 263 262 261 261 260 260 260 260 260 261 261 262 263 264 265 265 266 266 267 267 267
266 264 263 264 264 265 265 265 266 266 266 267 268 269 269 269 268 266 264 264 264 264 264 264 263 263 262 262 262 262 262 263 264 264 265 266 266 267 268 268 269 269 269
268 267 266 265 266 266 266 267 267 267 266 267 268 268 268 267 266 265 264 264 264 266 266 265 265 266 266 266 265 265 265 265 266 266 267 268 268 269 270 270 271 271 271
269 267 267 266 266 266 266 267 267 267 267 267 267 267 266 265 265 264 264 264 265 265 265 266 267 267 268 268 268 268 268 268 269 269 269 270 270 271 272 272 273 274 274
270 269 267 266 266 266 266 266 266 267 266 266 266 266 265 265 265 264 264 264 265 265 266 266 266 267 268 268 269 269 269 270 271 271 272 273 273 274 274 274 275 275 276
271 270 268 267 266 266 266 266 267 267 267 266 265 265 265 265 265 265 264 265 266 266 266 266 267 268 268 269 269 269 270 271 271 272 273 274 275 275 275 275 276 276 276
273 271 269 268 268 268 267 267 267 267 267 266 265 265 265 265 265 265 265 265 266 266 266 267 268 268 269 269 270 271 271 272 272 273 274 274 275 275 276 276 276 276 276
275 273 272 271 270 270 269 268 268 267 267 266 266 266 266 266 265 265 266 266 266 267 267 267 268 269 270 270 271 271 272 272 273 274 274 274 274 275 275 276 276 276 276
279 277 275 273 272 272 271 270 269 269 268 268 268 267 267 267 267 267 267 267 267 268 268 268 269 270 270 271 271 272 272 273 274 274 274 274 274 275 275 275 275 275 275
281 279 277 276 275 274 273 272 272 271 271 270 270 269 268 268 268 268 268 269 269 269 269 269 270 270 271 271 272 272 273 274 274 275 275 275 275 275 275 275 275 275 275
283 281 280 278 277 276 275 274 274 274 273 273 272 271 271 270 270 270 270 270 270 270 270 271 271 271 271 272 272 273 273 274 274 274 274 274 275 275 275 275 275 275 275
285 284 282 281 280 279 278 277 276 275 275 275 274 274 273 273 272 272 272 272 272 272 272 272 272 272 272 272 272 273 273 273 274 274 274 274 274 274 274 274 274 274 274
287 287 286 285 283 282 282 281 279 278 277 277 277 276 276 276 276 275 275 275 274 274 274 273 273 273 273 273 273 273 273 273 273 273 273 273 273 273 273 273 273 273 273
290 290 289 288 287 287 286 285 284 283 282 281 280 280 279 279 278 278 278 277 277 277 276 276 275 275 274 274 273 273 273 273 273 273 273 273 272 272 272 272 272 272 272
292 292 292 291 290 290 289 287 286 285 284 284 283 282 281 281 281 281 280 280 279 279 278 277 276 276 275 275 274 274 274 274 274 274 274 273 273 272 272 272 272 272 272
293 293 293 293 292 291 290 289 287 286 286 285 285 285 285 284 283 283 282 281 281 281 280 280 279 278 278 277 277 276 276 276 275 275 274 274 273 273 273 273 272 272 272
294 295 294 294 293 292 291 290 290 289 289 289 288 287 287 286 286 286 285 285 284 284 284 283 282 281 281 280 280 279 278 277 276 275 275 275 274 274 273 273 272 272 272
295 295 294 294 293 292 291 291 290 290 290 290 290 289 289 289 289 288 288 287 286 286 285 285 284 284 283 283 283 282 282 280 278 276 275 275 275 274 274 273 273 272 272
295 295 294 295 294 292 292 291 291 291 291 291 291 290 290 290 290 290 290 289 289 288 288 287 287 286 286 286 285 284 284 283 282 280 277 275 274 274 274 274 273 273 272
294 294 294 294 294 293 293 292 292 292 292 291 291 291 291 291 291 291 291 291 290 290 290 289 289 288 288 287 286 286 285 284 283 283 281 278 276 275 273 273 273 273 272
293 293 293 294 293 293 293 293 293 293 293 293 292 292 292 293 293 293 293 292 292 291 291 290 290 289 289 288 287 286 285 284 283 282 282 280 278 276 275 273 272 272 271